Location: Madison
(43.0730°N, 89.3819°W)
Time: 18:40:27
(UTC-05:00)

N. Korean satellite - Visible Passes

Search period start: 20 October 2019 00:00
Search period end: 30 October 2019 00:00
Orbit: 455 x 508 km, 97.2° (Epoch: 20 October)

Date Brightness Start Highest point End Pass type
(mag) Time Alt. Az. Time Alt. Az. Time Alt. Az.
20 Oct 9.6 06:07:26 10° NE 06:10:13 21° E 06:13:01 10° SE visible
21 Oct 10.5 05:44:05 10° E 05:44:44 10° E 05:45:22 10° E visible
22 Oct 7.0 06:49:30 10° NNE 06:53:08 72° ESE 06:56:48 10° S visible
22 Oct 9.9 19:00:30 10° SW 19:02:44 16° W 19:04:58 10° NW visible
23 Oct 8.6 06:24:27 10° NNE 06:27:47 33° E 06:31:09 10° SSE visible
23 Oct 8.6 18:34:08 10° SSW 18:37:15 33° W 18:40:26 10° NNW visible
24 Oct 9.9 05:59:53 10° NE 06:02:20 17° E 06:04:49 10° SE visible
26 Oct 7.4 06:41:40 10° NNE 06:45:17 57° E 06:48:56 10° S visible
26 Oct 9.6 18:52:10 10° SW 18:54:47 20° W 18:57:26 10° NW visible
27 Oct 9.1 06:16:43 10° NE 06:19:53 27° E 06:23:05 10° SSE visible
27 Oct 8.0 18:26:03 10° S 18:29:20 42° W 18:32:41 10° NNW visible
28 Oct 10.2 05:52:23 10° ENE 05:54:25 14° E 05:56:26 10° SE visible
29 Oct 10.2 19:10:45 10° WSW 19:12:19 13° W 19:13:54 10° WNW visible
